Time[GMT],dominant_wave_period_2[s](0m),significant_wave_height_2[m](0m)
2019-08-26 20:00,5.33,0.98
2019-08-26 20:30,6.40,0.95
2019-08-26 21:00,5.33,1.03
2019-08-26 21:30,6.40,1.05
2019-08-26 22:00,6.40,1.07
2019-08-26 22:30,5.33,1.03
2019-08-26 23:00,6.40,1.05
2019-08-26 23:30,6.40,1.03
2019-08-27 00:00,6.40,1.03
2019-08-27 00:30,5.33,0.99
2019-08-27 01:00,6.40,1.00
2019-08-27 01:30,5.33,0.91
2019-08-27 02:00,4.57,0.94
2019-08-27 02:30,5.33,0.93
2019-08-27 03:00,4.57,0.94
2019-08-27 03:30,6.40,0.97
2019-08-27 04:00,4.57,0.91
2019-08-27 04:30,5.33,0.95
2019-08-27 05:00,5.33,0.90
2019-08-27 05:30,5.33,0.84
2019-08-27 06:00,5.33,0.80
2019-08-27 06:30,5.33,0.81
2019-08-27 07:00,6.40,0.77
2019-08-27 07:30,5.33,0.79
2019-08-27 08:00,5.33,0.82
2019-08-27 08:30,6.40,0.83
2019-08-27 09:00,5.33,0.81
2019-08-27 09:30,5.33,0.82
2019-08-27 10:00,5.33,0.78
2019-08-27 10:30,6.40,0.74
2019-08-27 11:00,5.33,0.72
2019-08-27 11:30,6.40,0.76
2019-08-27 12:00,5.33,0.77
2019-08-27 12:30,6.40,0.80
2019-08-27 13:00,5.33,0.75
2019-08-27 13:30,5.33,0.76
2019-08-27 14:00,6.40,0.78
2019-08-27 14:30,6.40,0.74
2019-08-27 15:00,6.40,0.85
2019-08-27 15:30,5.33,0.85
2019-08-27 16:00,6.40,0.96
2019-08-27 16:30,5.33,1.05
2019-08-27 17:00,5.33,1.18
2019-08-27 17:30,5.33,1.19
2019-08-27 18:00,5.33,1.35
2019-08-27 18:30,4.00,1.36
2019-08-27 19:00,4.00,1.36
2019-08-27 19:30,4.00,1.25
2019-08-27 20:00,4.00,1.24
2019-08-27 20:30,4.57,1.22
2019-08-27 21:00,4.57,1.26
2019-08-27 21:30,4.57,1.24
2019-08-27 22:00,4.57,1.27
2019-08-27 22:30,4.57,1.11
2019-08-27 23:00,5.33,1.16
2019-08-27 23:30,5.33,1.07
2019-08-28 00:00,6.40,0.95
2019-08-28 00:30,6.40,0.91
2019-08-28 01:00,6.40,0.92
2019-08-28 01:30,6.40,0.89
2019-08-28 02:00,6.40,0.82
2019-08-28 02:30,5.33,0.90
2019-08-28 03:00,6.40,0.84
2019-08-28 03:30,6.40,0.89
2019-08-28 04:00,6.40,0.87
2019-08-28 04:30,6.40,0.89
2019-08-28 05:00,6.40,0.91
2019-08-28 05:30,6.40,0.89
2019-08-28 06:00,6.40,0.85
2019-08-28 06:30,6.40,0.85
2019-08-28 07:00,2.46,0.37
2019-08-28 07:30,8.00,0.90
2019-08-28 08:00,8.00,0.91
2019-08-28 08:30,8.00,0.88
2019-08-28 09:00,8.00,0.89
2019-08-28 09:30,8.00,0.90
2019-08-28 10:00,8.00,0.95
2019-08-28 10:30,8.00,0.92
2019-08-28 11:00,8.00,0.92
2019-08-28 11:30,8.00,0.97
2019-08-28 12:00,8.00,1.05
2019-08-28 12:30,8.00,1.08
2019-08-28 13:00,8.00,1.04
2019-08-28 13:30,8.00,1.04
2019-08-28 14:00,8.00,1.05
2019-08-28 14:30,8.00,1.00
2019-08-28 15:00,8.00,1.03
2019-08-28 15:30,8.00,1.05
2019-08-28 16:00,8.00,1.13
2019-08-28 16:30,8.00,1.19
2019-08-28 17:00,8.00,1.36
2019-08-28 17:30,8.00,1.41
2019-08-28 18:00,8.00,1.34
2019-08-28 18:30,8.00,1.32
2019-08-28 19:00,8.00,1.32
2019-08-28 19:30,8.00,1.31
2019-08-28 20:00,8.00,1.13
2019-08-28 20:30,2.46,0.47
2019-08-28 21:00,8.00,1.13
2019-08-28 21:30,4.57,0.73
2019-08-28 22:00,8.00,1.18
2019-08-28 22:30,8.00,1.10
2019-08-28 23:00,8.00,1.04
2019-08-28 23:30,8.00,0.99
2019-08-29 00:00,8.00,0.95
2019-08-29 00:30,8.00,0.96
2019-08-29 01:00,8.00,0.89
2019-08-29 01:30,8.00,0.89
2019-08-29 02:00,8.00,0.79
2019-08-29 02:30,5.33,0.69
2019-08-29 03:00,8.00,0.73
2019-08-29 03:30,6.40,0.69
2019-08-29 04:00,8.00,0.72
2019-08-29 04:30,2.67,0.36
2019-08-29 05:00,8.00,0.77
2019-08-29 05:30,8.00,0.73
2019-08-29 06:00,6.40,0.80
2019-08-29 06:30,8.00,0.87
2019-08-29 07:00,8.00,0.91
2019-08-29 07:30,8.00,0.88
2019-08-29 08:00,8.00,0.91
2019-08-29 08:30,8.00,0.91
2019-08-29 09:00,8.00,0.85
2019-08-29 09:30,8.00,0.83
2019-08-29 10:00,8.00,0.84
2019-08-29 10:30,8.00,0.80
2019-08-29 11:00,8.00,0.85
2019-08-29 11:30,8.00,0.82
2019-08-29 12:00,8.00,0.79
2019-08-29 12:30,6.40,0.86
2019-08-29 13:00,6.40,0.90
2019-08-29 13:30,6.40,0.88
2019-08-29 14:00,6.40,0.86
2019-08-29 14:30,6.40,1.05
2019-08-29 15:00,6.40,1.03
2019-08-29 15:30,6.40,1.12
2019-08-29 16:00,6.40,1.37
2019-08-29 16:30,6.40,1.45
2019-08-29 17:00,5.33,1.33
2019-08-29 17:30,6.40,1.40
2019-08-29 18:00,6.40,1.28
2019-08-29 18:30,5.33,1.14
2019-08-29 19:00,6.40,1.17
2019-08-29 19:30,6.40,1.20
2019-08-29 20:00,5.33,1.28
2019-08-29 20:30,5.33,1.22
2019-08-29 21:00,6.40,1.21
2019-08-29 21:30,5.33,1.11
2019-08-29 22:00,6.40,0.99
2019-08-29 22:30,6.40,0.99
2019-08-29 23:00,6.40,1.01
2019-08-29 23:30,6.40,1.17
2019-08-30 00:00,6.40,1.11
2019-08-30 00:30,6.40,1.13
2019-08-30 01:00,6.40,1.09
2019-08-30 01:30,6.40,1.11
2019-08-30 02:00,6.40,1.17
2019-08-30 02:30,6.40,1.18
2019-08-30 03:00,6.40,1.15
2019-08-30 03:30,6.40,1.12
2019-08-30 04:00,6.40,1.10
2019-08-30 04:30,6.40,1.13
2019-08-30 05:00,6.40,1.25
2019-08-30 05:30,6.40,1.19
2019-08-30 06:00,6.40,1.15
2019-08-30 06:30,6.40,1.17
2019-08-30 07:00,6.40,1.26
2019-08-30 07:30,6.40,1.27
2019-08-30 08:00,6.40,1.16
2019-08-30 08:30,6.40,1.21
2019-08-30 09:00,6.40,1.20
2019-08-30 09:30,6.40,1.14
2019-08-30 10:00,6.40,1.07
2019-08-30 10:30,6.40,1.12
2019-08-30 11:00,6.40,1.00
2019-08-30 11:30,6.40,1.03
2019-08-30 12:00,6.40,0.97
2019-08-30 12:30,6.40,1.00
2019-08-30 13:00,6.40,0.95
2019-08-30 13:30,6.40,1.05
2019-08-30 14:00,6.40,0.94
2019-08-30 14:30,6.40,1.01
2019-08-30 15:00,6.40,1.05
2019-08-30 15:30,6.40,1.10
2019-08-30 16:00,6.40,1.02
2019-08-30 16:30,6.40,1.06
2019-08-30 17:00,6.40,1.13
2019-08-30 17:30,6.40,1.12
2019-08-30 18:00,5.33,1.19
2019-08-30 18:30,6.40,1.19
2019-08-30 19:00,6.40,1.24
2019-08-30 19:30,5.33,1.27
2019-08-30 20:00,5.33,1.12
2019-08-30 20:30,5.33,1.12
2019-08-30 21:00,6.40,1.08
2019-08-30 21:30,5.33,1.19
2019-08-30 22:00,6.40,1.09
2019-08-30 22:30,5.33,0.97
2019-08-30 23:00,5.33,0.96
2019-08-30 23:30,5.33,0.91
2019-08-31 00:00,5.33,0.94
2019-08-31 00:30,5.33,0.94
2019-08-31 01:00,5.33,0.88
2019-08-31 01:30,5.33,0.90
2019-08-31 02:00,5.33,0.85
2019-08-31 02:30,5.33,0.87
2019-08-31 03:00,5.33,0.83
2019-08-31 03:30,5.33,0.80
2019-08-31 04:00,5.33,0.77
2019-08-31 04:30,6.40,0.79
2019-08-31 05:00,5.33,0.78
2019-08-31 05:30,5.33,0.83
2019-08-31 06:00,5.33,0.83
2019-08-31 06:30,5.33,0.75
2019-08-31 07:00,5.33,0.71
2019-08-31 07:30,5.33,0.88
2019-08-31 08:00,5.33,0.89
2019-08-31 08:30,5.33,0.90
2019-08-31 09:00,5.33,0.82
2019-08-31 09:30,5.33,0.77
2019-08-31 10:00,5.33,0.73
2019-08-31 10:30,5.33,0.73
2019-08-31 11:00,5.33,0.74
2019-08-31 11:30,5.33,0.70
2019-08-31 12:00,5.33,0.70
2019-08-31 12:30,5.33,0.65
2019-08-31 13:00,5.33,0.68
2019-08-31 13:30,5.33,0.74
2019-08-31 14:00,5.33,0.75
2019-08-31 14:30,5.33,0.70
2019-08-31 15:00,5.33,0.69
2019-08-31 15:30,5.33,0.71
2019-08-31 16:00,5.33,0.71
2019-08-31 16:30,5.33,0.69
2019-08-31 17:00,5.33,0.62
2019-08-31 17:30,5.33,0.63
2019-08-31 18:00,5.33,0.67
2019-08-31 18:30,5.33,0.71
2019-08-31 19:00,5.33,0.75
2019-08-31 19:30,5.33,0.82
2019-08-31 20:00,5.33,0.80
2019-08-31 20:30,5.33,0.77
2019-08-31 21:00,5.33,0.78
2019-08-31 21:30,5.33,0.80
2019-08-31 22:00,5.33,0.74
2019-08-31 22:30,5.33,0.77
2019-08-31 23:00,5.33,0.70
2019-08-31 23:30,5.33,0.72
2019-09-01 00:00,5.33,0.73
2019-09-01 00:30,5.33,0.68
2019-09-01 01:00,5.33,0.67
2019-09-01 01:30,5.33,0.66
2019-09-01 02:00,5.33,0.72
2019-09-01 02:30,5.33,0.63
2019-09-01 03:00,5.33,0.64
2019-09-01 03:30,5.33,0.60
2019-09-01 04:00,5.33,0.60
2019-09-01 04:30,5.33,0.61
2019-09-01 05:00,5.33,0.58
2019-09-01 05:30,5.33,0.56
2019-09-01 06:00,5.33,0.60
2019-09-01 06:30,5.33,0.58
2019-09-01 07:00,5.33,0.65
2019-09-01 07:30,5.33,0.75
2019-09-01 08:00,5.33,0.74
2019-09-01 08:30,5.33,0.72
2019-09-01 09:00,5.33,0.81
2019-09-01 09:30,5.33,0.70
2019-09-01 10:00,5.33,0.69
2019-09-01 10:30,4.57,0.68
2019-09-01 11:00,4.57,0.65
2019-09-01 11:30,5.33,0.65
2019-09-01 12:00,5.33,0.67
2019-09-01 12:30,5.33,0.62
2019-09-01 13:00,5.33,0.62
2019-09-01 13:30,5.33,0.56
2019-09-01 14:00,5.33,0.60
2019-09-01 14:30,5.33,0.61
2019-09-01 15:00,5.33,0.58
2019-09-01 15:30,4.57,0.62
2019-09-01 16:00,5.33,0.67
2019-09-01 16:30,5.33,0.66
2019-09-01 17:00,5.33,0.65
2019-09-01 17:30,5.33,0.65
2019-09-01 18:00,5.33,0.61
2019-09-01 18:30,5.33,0.61
2019-09-01 19:00,5.33,0.62
2019-09-01 19:30,5.33,0.64
2019-09-01 20:00,4.57,0.64
2019-09-01 20:30,4.57,0.65
2019-09-01 21:00,4.57,0.71
2019-09-01 21:30,4.57,0.67
2019-09-01 22:00,4.57,0.69
2019-09-01 22:30,4.57,0.72
2019-09-01 23:00,4.57,0.71
2019-09-01 23:30,4.57,0.61
2019-09-02 00:00,5.33,0.61
2019-09-02 00:30,5.33,0.55
2019-09-02 01:00,4.57,0.60
2019-09-02 01:30,5.33,0.60
2019-09-02 02:00,4.57,0.58
2019-09-02 02:30,5.33,0.59
2019-09-02 03:00,5.33,0.58
2019-09-02 03:30,4.57,0.56
2019-09-02 04:00,5.33,0.52
2019-09-02 04:30,4.57,0.50
2019-09-02 05:00,5.33,0.48
2019-09-02 05:30,5.33,0.51
2019-09-02 06:00,5.33,0.49
2019-09-02 06:30,5.33,0.45
2019-09-02 07:00,5.33,0.48
2019-09-02 07:30,4.57,0.50
2019-09-02 08:00,4.57,0.58
2019-09-02 08:30,4.57,0.63
2019-09-02 09:00,4.57,0.66
2019-09-02 09:30,4.57,0.74
2019-09-02 10:00,4.57,0.69
2019-09-02 10:30,4.57,0.65
2019-09-02 11:00,4.57,0.73
2019-09-02 11:30,4.57,0.67
2019-09-02 12:00,4.57,0.59
2019-09-02 12:30,4.57,0.57
2019-09-02 13:00,4.57,0.58
2019-09-02 13:30,4.57,0.54
2019-09-02 14:00,4.57,0.60
2019-09-02 14:30,4.57,0.60
2019-09-02 15:00,4.57,0.58
2019-09-02 15:30,4.57,0.60
2019-09-02 16:00,4.57,0.67
2019-09-02 16:30,4.57,0.61
2019-09-02 17:00,4.00,0.67
2019-09-02 17:30,5.33,0.62
2019-09-02 18:00,4.57,0.61
2019-09-02 18:30,5.33,0.58
2019-09-02 19:00,5.33,0.60
2019-09-02 19:30,5.33,0.56
2019-09-02 20:00,5.33,0.60
2019-09-02 20:30,4.57,0.62
2019-09-02 21:00,4.57,0.63
2019-09-02 21:30,4.57,0.66
2019-09-02 22:00,4.57,0.74
2019-09-02 22:30,5.33,0.76
2019-09-02 23:00,5.33,0.76
2019-09-02 23:30,5.33,0.77
2019-09-03 00:00,4.57,0.85
2019-09-03 00:30,5.33,0.77
2019-09-03 01:00,5.33,0.70
2019-09-03 01:30,5.33,0.66
2019-09-03 02:00,4.57,0.65
2019-09-03 02:30,5.33,0.65
2019-09-03 03:00,5.33,0.62
2019-09-03 03:30,4.57,0.63
2019-09-03 04:00,5.33,0.63
2019-09-03 04:30,5.33,0.60
2019-09-03 05:00,4.57,0.63
2019-09-03 05:30,5.33,0.68
2019-09-03 06:00,5.33,0.65
2019-09-03 06:30,5.33,0.60
2019-09-03 07:00,5.33,0.69
2019-09-03 07:30,5.33,0.64
2019-09-03 08:00,5.33,0.71
2019-09-03 08:30,4.57,0.70
2019-09-03 09:00,4.57,0.74
2019-09-03 09:30,4.57,0.67
2019-09-03 10:00,4.57,0.78
2019-09-03 10:30,5.33,0.73
2019-09-03 11:00,4.57,0.71
2019-09-03 11:30,5.33,0.76
2019-09-03 12:00,5.33,0.73
2019-09-03 12:30,4.57,0.77
2019-09-03 13:00,5.33,0.81
2019-09-03 13:30,5.33,0.79
2019-09-03 14:00,5.33,0.80
2019-09-03 14:30,5.33,0.87
2019-09-03 15:00,5.33,0.85
2019-09-03 15:30,5.33,0.81
2019-09-03 16:00,5.33,0.87
2019-09-03 16:30,5.33,0.89
2019-09-03 17:00,5.33,0.96
2019-09-03 17:30,5.33,0.93
2019-09-03 18:00,5.33,0.97
2019-09-03 18:30,5.33,1.02
2019-09-03 19:00,5.33,1.02
2019-09-03 19:30,5.33,0.95
2019-09-03 20:00,5.33,1.01
2019-09-03 20:30,5.33,1.00
2019-09-03 21:00,5.33,1.03
2019-09-03 21:30,5.33,1.12
2019-09-03 22:00,4.57,1.15
2019-09-03 22:30,5.33,1.19
2019-09-03 23:00,5.33,1.18
2019-09-03 23:30,5.33,1.13
2019-09-04 00:00,5.33,1.19
2019-09-04 00:30,5.33,1.24
2019-09-04 01:00,5.33,1.35
2019-09-04 01:30,5.33,1.17
2019-09-04 02:00,5.33,1.07
2019-09-04 02:30,5.33,1.11
2019-09-04 03:00,5.33,1.04
2019-09-04 03:30,5.33,1.10
2019-09-04 04:00,5.33,1.13
2019-09-04 04:30,5.33,1.27
2019-09-04 05:00,5.33,1.21
2019-09-04 05:30,6.40,1.24
2019-09-04 06:00,5.33,1.29
2019-09-04 06:30,6.40,1.20
2019-09-04 07:00,5.33,1.26
2019-09-04 07:30,6.40,1.24
2019-09-04 08:00,6.40,1.39
2019-09-04 08:30,6.40,1.36
2019-09-04 09:00,6.40,1.42
2019-09-04 09:30,6.40,1.46
2019-09-04 10:00,6.40,1.44
2019-09-04 10:30,6.40,1.52
2019-09-04 11:00,6.40,1.62
2019-09-04 11:30,6.40,1.59
2019-09-04 12:00,6.40,1.39
2019-09-04 12:30,6.40,1.46
2019-09-04 13:00,6.40,1.38
2019-09-04 13:30,6.40,1.46
2019-09-04 14:00,6.40,1.37
2019-09-04 14:30,6.40,1.33
2019-09-04 15:00,6.40,1.18
2019-09-04 15:30,6.40,1.28
2019-09-04 16:00,6.40,1.25
2019-09-04 16:30,6.40,1.14
2019-09-04 17:00,6.40,1.16
2019-09-04 17:30,6.40,1.14
2019-09-04 18:00,6.40,1.10
2019-09-04 18:30,6.40,1.07
2019-09-04 19:00,6.40,1.10
2019-09-04 19:30,6.40,1.03
2019-09-04 20:00,6.40,1.07
2019-09-04 20:30,6.40,1.05
2019-09-04 21:00,6.40,1.24
2019-09-04 21:30,6.40,1.28
2019-09-04 22:00,6.40,1.27
2019-09-04 22:30,6.40,1.43
2019-09-04 23:00,6.40,1.29
2019-09-04 23:30,6.40,1.33
2019-09-05 00:00,6.40,1.25
2019-09-05 00:30,6.40,1.18
2019-09-05 01:00,6.40,1.17
2019-09-05 01:30,6.40,1.06
2019-09-05 02:00,6.40,1.16
2019-09-05 02:30,6.40,0.99
2019-09-05 03:00,6.40,1.02
2019-09-05 03:30,6.40,0.95
2019-09-05 04:00,6.40,0.88
2019-09-05 04:30,6.40,0.85
2019-09-05 05:00,6.40,0.89
2019-09-05 05:30,6.40,0.82
2019-09-05 06:00,6.40,0.84
2019-09-05 06:30,6.40,0.86
2019-09-05 07:00,6.40,0.92
2019-09-05 07:30,6.40,0.92
2019-09-05 08:00,6.40,0.83
2019-09-05 08:30,6.40,0.88
2019-09-05 09:00,6.40,0.84
2019-09-05 09:30,6.40,0.99
2019-09-05 10:00,6.40,0.96
2019-09-05 10:30,6.40,0.95
2019-09-05 11:00,5.33,0.93
2019-09-05 11:30,6.40,1.11
2019-09-05 12:00,6.40,1.20
2019-09-05 12:30,6.40,1.12
2019-09-05 13:00,6.40,1.04
2019-09-05 13:30,6.40,0.95
2019-09-05 14:00,5.33,0.93
2019-09-05 14:30,6.40,0.87
2019-09-05 15:00,6.40,0.90
2019-09-05 15:30,5.33,0.86
2019-09-05 16:00,5.33,0.87
2019-09-05 16:30,5.33,0.93
2019-09-05 17:00,6.40,0.96
2019-09-05 17:30,6.40,1.01
2019-09-05 18:00,5.33,1.00
2019-09-05 18:30,4.57,1.00
2019-09-05 19:00,6.40,1.00
2019-09-05 19:30,5.33,1.02
2019-09-05 20:00,5.33,0.94
2019-09-05 20:30,5.33,0.97
2019-09-05 21:00,6.40,0.96
2019-09-05 21:30,5.33,1.01
2019-09-05 22:00,5.33,1.00
2019-09-05 22:30,6.40,0.99
2019-09-05 23:00,5.33,1.02
2019-09-05 23:30,6.40,0.96
2019-09-06 00:00,5.33,0.92
2019-09-06 00:30,5.33,0.91
2019-09-06 01:00,5.33,0.96
2019-09-06 01:30,4.57,0.88
2019-09-06 02:00,5.33,0.78
2019-09-06 02:30,5.33,0.74
2019-09-06 03:00,6.40,0.79
2019-09-06 03:30,5.33,0.69
2019-09-06 04:00,5.33,0.67
2019-09-06 04:30,5.33,0.74
2019-09-06 05:00,5.33,0.69
2019-09-06 05:30,5.33,0.64
2019-09-06 06:00,5.33,0.69
2019-09-06 06:30,5.33,0.66
2019-09-06 07:00,5.33,0.57
2019-09-06 07:30,5.33,0.58
2019-09-06 08:00,5.33,0.65
2019-09-06 08:30,5.33,0.62
2019-09-06 09:00,5.33,0.64
2019-09-06 09:30,5.33,0.63
2019-09-06 10:00,5.33,0.61
2019-09-06 10:30,5.33,0.57
2019-09-06 11:00,5.33,0.62
2019-09-06 11:30,5.33,0.56
2019-09-06 12:00,5.33,0.59
2019-09-06 12:30,5.33,0.64
2019-09-06 13:00,5.33,0.66
2019-09-06 13:30,5.33,0.67
2019-09-06 14:00,5.33,0.64
2019-09-06 14:30,4.57,0.62
2019-09-06 15:00,5.33,0.60
2019-09-06 15:30,5.33,0.55
2019-09-06 16:00,4.57,0.51
2019-09-06 16:30,4.57,0.51
2019-09-06 17:00,5.33,0.48
2019-09-06 17:30,4.57,0.52
2019-09-06 18:00,4.57,0.54
2019-09-06 18:30,5.33,0.46
2019-09-06 19:00,5.33,0.46
2019-09-06 19:30,5.33,0.43
2019-09-06 20:00,5.33,0.47
2019-09-06 20:30,5.33,0.47
2019-09-06 21:00,3.56,0.39
2019-09-06 21:30,5.33,0.49
2019-09-06 22:00,5.33,0.45
2019-09-06 22:30,5.33,0.44
2019-09-06 23:00,5.33,0.42
2019-09-06 23:30,5.33,0.42
2019-09-07 00:00,3.56,0.29
2019-09-07 00:30,5.33,0.47
2019-09-07 01:00,4.57,0.42
2019-09-07 01:30,5.33,0.43
2019-09-07 02:00,5.33,0.50
2019-09-07 02:30,6.40,0.46
2019-09-07 03:00,5.33,0.42
2019-09-07 03:30,5.33,0.43
2019-09-07 04:00,5.33,0.41
2019-09-07 04:30,5.33,0.43
2019-09-07 05:00,5.33,0.39
2019-09-07 05:30,4.57,0.40
2019-09-07 06:00,5.33,0.41
2019-09-07 06:30,4.57,0.39
2019-09-07 07:00,4.57,0.42
2019-09-07 07:30,4.57,0.42
2019-09-07 08:00,5.33,0.43
2019-09-07 08:30,5.33,0.41
2019-09-07 09:00,5.33,0.47
2019-09-07 09:30,5.33,0.45
2019-09-07 10:00,4.57,0.43
2019-09-07 10:30,5.33,0.44
2019-09-07 11:00,5.33,0.41
2019-09-07 11:30,5.33,0.43
2019-09-07 12:00,4.57,0.44
2019-09-07 12:30,4.57,0.42
2019-09-07 13:00,4.57,0.42
2019-09-07 13:30,4.57,0.39
2019-09-07 14:00,4.57,0.38
2019-09-07 14:30,4.57,0.37
2019-09-07 15:00,4.57,0.39
2019-09-07 15:30,4.57,0.38
2019-09-07 16:00,4.57,0.37
2019-09-07 16:30,4.00,0.38
2019-09-07 17:00,4.00,0.34
2019-09-07 17:30,4.57,0.38
2019-09-07 18:00,4.57,0.38
2019-09-07 18:30,4.00,0.36
2019-09-07 19:00,4.00,0.40
2019-09-07 19:30,4.00,0.37
2019-09-07 20:00,3.20,0.37
2019-09-07 20:30,4.57,0.35
2019-09-07 21:00,3.56,0.33
2019-09-07 21:30,3.56,0.34
2019-09-07 22:00,3.56,0.35
2019-09-07 22:30,3.56,0.31
2019-09-07 23:00,3.56,0.32
2019-09-07 23:30,4.57,0.32
2019-09-08 00:00,3.56,0.31
2019-09-08 00:30,4.57,0.29
2019-09-08 01:00,4.57,0.30
2019-09-08 01:30,8.00,0.35
2019-09-08 02:00,4.57,0.34
2019-09-08 02:30,4.00,0.34
2019-09-08 03:00,4.57,0.35
2019-09-08 03:30,3.56,0.35
2019-09-08 04:00,4.00,0.35
2019-09-08 04:30,3.56,0.33
2019-09-08 05:00,8.00,0.36
2019-09-08 05:30,4.00,0.31
2019-09-08 06:00,4.00,0.35
2019-09-08 06:30,4.00,0.30
2019-09-08 07:00,4.00,0.35
2019-09-08 07:30,4.00,0.34
2019-09-08 08:00,4.00,0.38
2019-09-08 08:30,4.00,0.37
2019-09-08 09:00,3.56,0.35
2019-09-08 09:30,4.00,0.39
2019-09-08 10:00,4.00,0.41
2019-09-08 10:30,4.00,0.42
2019-09-08 11:00,4.00,0.36
2019-09-08 11:30,4.00,0.35
2019-09-08 12:00,4.57,0.34
2019-09-08 12:30,4.57,0.34
2019-09-08 13:00,3.56,0.29
2019-09-08 13:30,4.57,0.30
2019-09-08 14:00,4.57,0.27
2019-09-08 14:30,4.57,0.30
2019-09-08 15:00,4.57,0.26
2019-09-08 15:30,4.57,0.25
2019-09-08 16:00,4.57,0.28
2019-09-08 16:30,4.57,0.28
2019-09-08 17:00,4.57,0.25
2019-09-08 17:30,4.57,0.31
2019-09-08 18:00,4.57,0.32
2019-09-08 18:30,4.57,0.28
2019-09-08 19:00,4.57,0.29
2019-09-08 19:30,4.57,0.36
2019-09-08 20:00,4.57,0.31
2019-09-08 20:30,4.57,0.32
2019-09-08 21:00,4.00,0.32
2019-09-08 21:30,4.57,0.30
2019-09-08 22:00,4.57,0.34
2019-09-08 22:30,4.57,0.35
2019-09-08 23:00,4.57,0.36
2019-09-08 23:30,4.57,0.40
2019-09-09 00:00,4.57,0.40
2019-09-09 00:30,5.33,0.38
2019-09-09 01:00,4.57,0.39
2019-09-09 01:30,4.57,0.39
2019-09-09 02:00,5.33,0.37
2019-09-09 02:30,5.33,0.37
2019-09-09 03:00,5.33,0.32
2019-09-09 03:30,5.33,0.40
2019-09-09 04:00,5.33,0.40
2019-09-09 04:30,5.33,0.40
2019-09-09 05:00,10.67,0.39
2019-09-09 05:30,10.67,0.36
2019-09-09 06:00,5.33,0.42
2019-09-09 06:30,10.67,0.40
2019-09-09 07:00,5.33,0.40
2019-09-09 07:30,10.67,0.42
2019-09-09 08:00,10.67,0.44
2019-09-09 08:30,10.67,0.43
2019-09-09 09:00,10.67,0.46
2019-09-09 09:30,10.67,0.41
2019-09-09 10:00,10.67,0.44
2019-09-09 10:30,10.67,0.49
2019-09-09 11:00,10.67,0.45
2019-09-09 11:30,4.57,0.34
2019-09-09 12:00,4.57,0.35
2019-09-09 12:30,8.00,0.45
2019-09-09 13:00,4.57,0.39
2019-09-09 13:30,4.57,0.39
2019-09-09 14:00,4.57,0.39
2019-09-09 14:30,4.57,0.37
2019-09-09 15:00,4.57,0.38
2019-09-09 15:30,4.57,0.39
2019-09-09 16:00,4.57,0.40
2019-09-09 16:30,4.57,0.41
2019-09-09 17:00,4.57,0.41
2019-09-09 17:30,4.57,0.39
2019-09-09 18:00,4.57,0.50
2019-09-09 18:30,4.57,0.43
2019-09-09 19:00,4.57,0.46
2019-09-09 19:30,4.57,0.54
2019-09-09 20:00,4.00,0.48
2019-09-09 20:30,4.57,0.49
2019-09-09 21:00,4.57,0.45
2019-09-09 21:30,4.00,0.45
2019-09-09 22:00,4.57,0.44
2019-09-09 22:30,4.57,0.42
2019-09-09 23:00,4.57,0.45
2019-09-09 23:30,4.57,0.45
2019-09-10 00:00,4.57,0.46
2019-09-10 00:30,5.33,0.49
2019-09-10 01:00,4.57,0.46
2019-09-10 01:30,5.33,0.45
2019-09-10 02:00,5.33,0.42
2019-09-10 02:30,4.57,0.47
2019-09-10 03:00,4.57,0.45
2019-09-10 03:30,5.33,0.42
2019-09-10 04:00,5.33,0.43
2019-09-10 04:30,4.57,0.39
2019-09-10 05:00,4.57,0.39
2019-09-10 05:30,4.57,0.38
2019-09-10 06:00,4.57,0.37
2019-09-10 06:30,4.57,0.38
2019-09-10 07:00,4.57,0.40
2019-09-10 07:30,4.57,0.41
2019-09-10 08:00,4.57,0.41
2019-09-10 08:30,4.57,0.45
2019-09-10 09:00,5.33,0.52
2019-09-10 09:30,4.57,0.50
2019-09-10 10:00,4.57,0.46
2019-09-10 10:30,4.57,0.52
2019-09-10 11:00,4.57,0.55
2019-09-10 11:30,4.57,0.53
2019-09-10 12:00,4.57,0.49
2019-09-10 12:30,4.57,0.54
2019-09-10 13:00,3.56,0.55
2019-09-10 13:30,4.57,0.51
2019-09-10 14:00,5.33,0.48
2019-09-10 14:30,4.57,0.49
2019-09-10 15:00,4.57,0.46
2019-09-10 15:30,4.57,0.45
2019-09-10 16:00,4.57,0.45
2019-09-10 16:30,4.57,0.43
2019-09-10 17:00,4.57,0.51
2019-09-10 17:30,4.57,0.47
2019-09-10 18:00,4.57,0.47
2019-09-10 18:30,5.33,0.54
2019-09-10 19:00,5.33,0.53
2019-09-10 19:30,5.33,0.55
2019-09-10 20:00,5.33,0.57
2019-09-10 20:30,4.57,0.59
2019-09-10 21:00,5.33,0.58
2019-09-10 21:30,5.33,0.63
2019-09-10 22:00,5.33,0.66
2019-09-10 22:30,4.57,0.61
2019-09-10 23:00,5.33,0.67
2019-09-10 23:30,4.57,0.66
2019-09-11 00:00,4.57,0.72
2019-09-11 00:30,4.57,0.67
2019-09-11 01:00,4.57,0.72
2019-09-11 01:30,5.33,0.67
2019-09-11 02:00,4.57,0.65
2019-09-11 02:30,5.33,0.67
2019-09-11 14:30,4.57,0.63
2019-09-11 15:00,4.57,0.66
2019-09-11 15:30,4.57,0.64
2019-09-11 16:00,4.57,0.59
2019-09-11 16:30,4.57,0.66
2019-09-11 17:00,4.57,0.64
2019-09-11 17:30,4.57,0.66
2019-09-11 18:00,4.57,0.66
2019-09-11 18:30,4.57,0.69
2019-09-11 19:00,4.57,0.69
2019-09-11 19:30,4.57,0.67
2019-09-11 20:00,5.33,0.63
2019-09-11 20:30,5.33,0.60
2019-09-11 21:00,5.33,0.58
2019-09-11 21:30,5.33,0.61
2019-09-11 22:00,4.57,0.64
2019-09-11 22:30,5.33,0.60
2019-09-11 23:00,5.33,0.59
2019-09-11 23:30,5.33,0.62
2019-09-12 00:00,4.57,0.60
2019-09-12 00:30,5.33,0.60
2019-09-12 01:00,4.57,0.66
2019-09-12 01:30,5.33,0.61
2019-09-12 02:00,5.33,0.61
2019-09-12 02:30,6.40,0.65
2019-09-12 03:00,6.40,0.64
2019-09-12 03:30,5.33,0.61
2019-09-12 04:00,5.33,0.62
2019-09-12 04:30,6.40,0.60
2019-09-12 05:00,6.40,0.54
2019-09-12 05:30,5.33,0.56
2019-09-12 06:00,5.33,0.60
2019-09-12 06:30,6.40,0.60
2019-09-12 07:00,5.33,0.55
2019-09-12 07:30,5.33,0.59
2019-09-12 08:00,5.33,0.61
2019-09-12 08:30,6.40,0.60
2019-09-12 09:00,5.33,0.61
2019-09-12 09:30,5.33,0.61
2019-09-12 10:00,5.33,0.58
2019-09-12 10:30,5.33,0.58
2019-09-12 11:00,5.33,0.62
2019-09-12 11:30,6.40,0.59
2019-09-12 12:00,5.33,0.61
2019-09-12 12:30,6.40,0.63
2019-09-12 13:00,5.33,0.56
2019-09-12 13:30,5.33,0.59
2019-09-12 14:00,5.33,0.62
2019-09-12 14:30,4.00,0.56
2019-09-12 15:00,5.33,0.59
2019-09-12 15:30,5.33,0.57
2019-09-12 16:00,5.33,0.53
2019-09-12 16:30,5.33,0.54
2019-09-12 17:00,5.33,0.55
2019-09-12 17:30,4.57,0.54
2019-09-12 18:00,5.33,0.59
2019-09-12 18:30,4.57,0.59
2019-09-12 19:00,4.57,0.64
2019-09-12 19:30,5.33,0.65
2019-09-12 20:00,5.33,0.65
2019-09-12 20:30,5.33,0.62
2019-09-12 21:00,5.33,0.64
2019-09-12 21:30,4.57,0.62
2019-09-12 22:00,4.57,0.61
2019-09-12 22:30,4.57,0.66
2019-09-12 23:00,4.57,0.69
2019-09-12 23:30,5.33,0.66
2019-09-13 00:00,5.33,0.62
2019-09-13 00:30,5.33,0.66
2019-09-13 01:00,5.33,0.67
2019-09-13 01:30,5.33,0.68
2019-09-13 02:00,5.33,0.67
2019-09-13 02:30,5.33,0.68
2019-09-13 03:00,3.56,0.68
2019-09-13 03:30,4.57,0.64
2019-09-13 04:00,5.33,0.57
2019-09-13 04:30,5.33,0.62
2019-09-13 05:00,4.00,0.66
2019-09-13 05:30,5.33,0.64
2019-09-13 06:00,5.33,0.59
2019-09-13 06:30,4.57,0.61
2019-09-13 07:00,4.57,0.62
2019-09-13 07:30,4.57,0.62
2019-09-13 08:00,4.57,0.61
2019-09-13 08:30,4.57,0.57
2019-09-13 09:00,4.57,0.55
2019-09-13 09:30,4.57,0.63
2019-09-13 10:00,4.57,0.59
2019-09-13 10:30,4.57,0.58
2019-09-13 11:00,4.57,0.56
2019-09-13 11:30,4.57,0.60
2019-09-13 12:00,4.57,0.63
2019-09-13 12:30,4.57,0.59
2019-09-13 13:00,4.57,0.60
2019-09-13 13:30,4.57,0.60
2019-09-13 14:00,4.57,0.60
2019-09-13 14:30,4.57,0.64
2019-09-13 15:00,4.57,0.65
2019-09-13 15:30,4.00,0.69
2019-09-13 16:00,4.57,0.73
2019-09-13 16:30,4.57,0.73
2019-09-13 17:00,5.33,0.73
2019-09-13 17:30,4.57,0.77
2019-09-13 18:00,5.33,0.85
2019-09-13 18:30,5.33,0.87
2019-09-13 19:00,4.57,0.89
2019-09-13 19:30,5.33,0.95
2019-09-13 20:00,4.57,0.96
2019-09-13 20:30,4.57,0.87
2019-09-13 21:00,4.57,0.84
2019-09-13 21:30,5.33,0.78
2019-09-13 22:00,5.33,0.80
2019-09-13 22:30,5.33,0.81
2019-09-13 23:00,5.33,0.74
2019-09-13 23:30,4.57,0.74
2019-09-14 00:00,4.57,0.77
2019-09-14 00:30,4.57,0.75
2019-09-14 01:00,5.33,0.78
2019-09-14 01:30,5.33,0.79
2019-09-14 02:00,5.33,0.80